Muscle Shoals, AL

12:36 PM CST on December 06, 2019 (GMT -0600)
Northwest Alabama Regional

Weather History for KMSL - October, 2019

Change the Weather History Date:

Thursday, October 10, 2019

  Actual Average Record
Temperature  
Mean Temperature 74 °F 64 °F  
Max Temperature 83 °F 76 °F 92 °F (1916)
Min Temperature 64 °F 52 °F 29 °F (1915)
Degree Days  
Heating Degree Days 0 4  
Month to date heating degree days 1 27  
Since 1 July heating degree days 1 42  
Cooling Degree Days 9 2  
Month to date cooling degree days 123 32  
Year to date cooling degree days 2481 1834  
Growing Degree Days 23 (Base 50)    
Moisture  
Dew Point 64 °F    
Average Humidity 76    
Maximum Humidity 93    
Minimum Humidity 58    
Precipitation  
Precipitation 0.07 in 0.10 in 2.65 in (1905)
Month to date precipitation 1.11 1.07  
Year to date precipitation 47.63 40.50  
Snow  
Snow 0.00 in - - ()
Month to date snowfall 0.0  
Since 1 July snowfall 0.0  
Since 1 September snowfall 0.0  
Snow Depth 0.00 in    
Sea Level Pressure  
Sea Level Pressure 30.06 in    
Wind  
Wind Speed 5 mph (SE)    
Max Wind Speed 14 mph    
Max Gust Speed 20 mph    
Visibility 10 miles    
Events Rain    
T = Trace of Precipitation, MM = Missing Value Source: NWS Daily Summary

Daily Weather History Graph

Daily Weather History Graph

Search for Another Location

Airport or City:

Astronomy

Oct. 10, 2019 Rise Set
Actual Time 6:51 AM CDT 6:22 PM CDT
Civil Twilight 6:26 AM CDT 6:47 PM CDT
Nautical Twilight 5:57 AM CDT 7:16 PM CDT
Astronomical Twilight 5:28 AM CDT 7:46 PM CDT
Moon 5:13 PM CDT (10/10) 3:46 AM CDT (10/10)
Length of Visible Light 12h 21m
Length of Day
11h 30m
Waxing Gibbous, 91% of the Moon is Illuminated
Oct 10
Waxing Gibbous
Oct 13
Full
Oct 21
Last Quarter
Oct 27
New
Nov 4
First Quarter

Hourly Weather History & Observations

Time (CDT) Temp. Heat Index Dew Point Humidity Pressure Visibility Wind Dir Wind Speed Gust Speed Precip Events Conditions
12:53 AM 66.0 °F - 63.0 °F 90% 30.05 in 10.0 mi SE 3.5 mph - N/A   Clear
1:53 AM 64.9 °F - 62.1 °F 90% 30.05 in 10.0 mi ESE 3.5 mph - N/A   Clear
2:53 AM 64.9 °F - 62.1 °F 90% 30.05 in 10.0 mi Calm Calm - N/A   Mostly Cloudy
3:53 AM 64.9 °F - 63.0 °F 93% 30.05 in 10.0 mi Calm Calm - N/A   Partly Cloudy
4:53 AM 66.0 °F - 63.0 °F 90% 30.06 in 10.0 mi ESE 3.5 mph - N/A   Mostly Cloudy
5:53 AM 66.0 °F - 63.0 °F 90% 30.07 in 10.0 mi East 4.6 mph - N/A   Scattered Clouds
6:53 AM 64.9 °F - 62.1 °F 90% 30.08 in 10.0 mi ESE 4.6 mph - N/A   Partly Cloudy
7:53 AM 66.9 °F - 63.0 °F 87% 30.09 in 10.0 mi ESE 4.6 mph - N/A   Mostly Cloudy
8:35 AM 69.1 °F - 63.0 °F 81% 30.11 in 10.0 mi ESE 8.1 mph - N/A   Mostly Cloudy
8:53 AM 70.0 °F - 64.0 °F 81% 30.10 in 10.0 mi SE 6.9 mph - N/A   Overcast
9:18 AM 71.1 °F - 63.0 °F 75% 30.11 in 10.0 mi SSE 9.2 mph - N/A   Overcast
9:53 AM 73.9 °F - 63.0 °F 68% 30.11 in 10.0 mi South 11.5 mph - N/A   Overcast
10:18 AM 75.0 °F - 63.0 °F 66% 30.13 in 10.0 mi SSE 12.7 mph - N/A   Overcast
10:32 AM 75.0 °F - 63.0 °F 66% 30.13 in 10.0 mi SSE 11.5 mph - N/A   Overcast
10:53 AM 73.0 °F - 64.0 °F 73% 30.12 in 5.0 mi SSE 11.5 mph - 0.03 in Rain Rain
11:11 AM 73.0 °F - 66.0 °F 79% 30.12 in 10.0 mi SE 5.8 mph - 0.00 in   Overcast
11:53 AM 73.9 °F - 64.9 °F 73% 30.10 in 10.0 mi SSE 10.4 mph - 0.00 in   Overcast
12:53 PM 78.1 °F - 64.9 °F 64% 30.07 in 10.0 mi SE 9.2 mph - N/A   Mostly Cloudy
1:15 PM 79.0 °F - 64.9 °F 62% 30.08 in 10.0 mi SE 6.9 mph - N/A   Mostly Cloudy
1:53 PM 82.0 °F 84.1 °F 66.0 °F 58% 30.04 in 10.0 mi ESE 8.1 mph - N/A   Mostly Cloudy
2:53 PM 77.0 °F - 66.9 °F 71% 30.03 in 3.0 mi WSW 3.5 mph - 0.04 in Rain Rain
3:53 PM 79.0 °F - 66.0 °F 64% 30.02 in 10.0 mi South 9.2 mph - 0.00 in   Overcast
4:53 PM 78.1 °F - 64.9 °F 64% 30.02 in 10.0 mi South 9.2 mph - N/A   Overcast
5:53 PM 75.9 °F - 64.9 °F 69% 30.01 in 10.0 mi SE 5.8 mph - N/A   Overcast
6:53 PM 72.0 °F - 64.9 °F 78% 30.01 in 10.0 mi SE 3.5 mph - N/A   Mostly Cloudy
7:53 PM 69.1 °F - 64.9 °F 87% 30.01 in 10.0 mi East 4.6 mph - N/A   Partly Cloudy
8:53 PM 70.0 °F - 64.0 °F 81% 30.01 in 10.0 mi East 6.9 mph - N/A   Clear
9:53 PM 68.0 °F - 64.0 °F 87% 30.03 in 10.0 mi Calm Calm - N/A   Clear
10:53 PM 66.9 °F - 63.0 °F 87% 30.03 in 10.0 mi ESE 3.5 mph - N/A   Clear
11:53 PM 66.0 °F - 63.0 °F 90% 30.03 in 10.0 mi Calm Calm - N/A   Partly Cloudy